Location: Sternwarte auf dem Internationalen Platz Vogelsang IP
(50.5721°N, 6.4398°E)
Time: 11:57:31
(UTC+01:00)

ACS3 Solar Sail - Pass Details

Date: 21 November 2025
Orbit: 888 x 1003 km, 97.3° (Epoch: 07 December)

Event Time Altitude Azimuth Distance (km) Brightness Sun altitude
Rises 03:18:03 0° 16° (NNE) 3,583 5.2 -43.6°
Reaches altitude 10° 03:20:35 10° 23° (NNE) 2,652 4.5 -43.2°
Enters shadow 03:21:55 17° 29° (NNE) 2,192 4.0 -43.0°
